TimeCST,TemperatureF,Dew PointF,Humidity,Sea Level PressureIn,VisibilityMPH,Wind Direction,Wind SpeedMPH,Gust SpeedMPH,PrecipitationIn,Events,Conditions,WindDirDegrees,DateUTC
12:14 AM,32.0,30.2,93,29.80,10.0,SSW,5.8,-,N/A,,Clear,200,2013-01-19 06:14:00
12:34 AM,32.0,30.2,93,29.80,10.0,SSW,6.9,-,N/A,,Clear,210,2013-01-19 06:34:00
12:54 AM,32.0,30.2,93,29.79,10.0,SW,5.8,-,N/A,,Scattered Clouds,220,2013-01-19 06:54:00
1:14 AM,32.0,30.2,93,29.79,10.0,SSW,4.6,-,N/A,,Scattered Clouds,210,2013-01-19 07:14:00
1:35 AM,32.0,30.2,93,29.78,10.0,South,4.6,-,N/A,,Mostly Cloudy,190,2013-01-19 07:35:00
1:54 AM,32.0,30.2,93,29.78,10.0,Calm,Calm,-,N/A,,Scattered Clouds,0,2013-01-19 07:54:00
2:14 AM,32.0,30.2,93,29.78,10.0,Calm,Calm,-,N/A,,Clear,0,2013-01-19 08:14:00
2:34 AM,32.0,30.2,93,29.78,10.0,South,4.6,-,N/A,,Clear,190,2013-01-19 08:34:00
2:54 AM,32.0,30.2,93,29.77,10.0,South,4.6,-,N/A,,Scattered Clouds,180,2013-01-19 08:54:00
3:15 AM,32.0,30.2,93,29.76,10.0,Calm,Calm,-,N/A,,Overcast,0,2013-01-19 09:15:00
3:35 AM,32.0,30.2,93,29.76,10.0,South,4.6,-,N/A,,Mostly Cloudy,170,2013-01-19 09:35:00
3:54 AM,32.0,28.4,87,29.75,10.0,South,6.9,-,N/A,,Scattered Clouds,190,2013-01-19 09:54:00
4:14 AM,32.0,30.2,93,29.74,10.0,South,5.8,-,N/A,,Scattered Clouds,180,2013-01-19 10:14:00
4:35 AM,32.0,30.2,93,29.75,10.0,South,3.5,-,N/A,,Mostly Cloudy,190,2013-01-19 10:35:00
4:54 AM,32.0,30.2,93,29.73,10.0,South,6.9,-,N/A,,Mostly Cloudy,180,2013-01-19 10:54:00
5:14 AM,32.0,30.2,93,29.73,10.0,South,6.9,-,N/A,,Scattered Clouds,190,2013-01-19 11:14:00
5:35 AM,32.0,30.2,93,29.73,10.0,SSW,3.5,-,N/A,,Clear,200,2013-01-19 11:35:00
6:15 AM,32.0,30.2,93,29.74,10.0,SW,6.9,-,N/A,,Scattered Clouds,230,2013-01-19 12:15:00
6:34 AM,32.0,30.2,93,29.73,10.0,SW,4.6,-,N/A,,Clear,230,2013-01-19 12:34:00
6:54 AM,32.0,28.4,87,29.73,10.0,SSW,8.1,-,N/A,,Clear,210,2013-01-19 12:54:00
7:15 AM,32.0,30.2,93,29.72,10.0,SSW,8.1,-,N/A,,Clear,200,2013-01-19 13:15:00
7:34 AM,32.0,28.4,87,29.73,10.0,SSW,9.2,-,N/A,,Clear,210,2013-01-19 13:34:00
7:55 AM,32.0,28.4,87,29.73,10.0,SW,5.8,-,N/A,,Clear,220,2013-01-19 13:55:00
8:15 AM,32.0,30.2,93,29.74,10.0,SW,8.1,-,N/A,,Clear,220,2013-01-19 14:15:00
8:35 AM,32.0,28.4,87,29.76,10.0,WSW,9.2,-,N/A,,Clear,240,2013-01-19 14:35:00
8:55 AM,32.0,30.2,93,29.77,10.0,WSW,9.2,-,N/A,,Clear,250,2013-01-19 14:55:00
9:14 AM,32.0,30.2,93,29.77,10.0,West,8.1,-,N/A,,Scattered Clouds,260,2013-01-19 15:14:00
9:35 AM,33.8,30.2,87,29.78,10.0,WSW,10.4,-,N/A,,Scattered Clouds,250,2013-01-19 15:35:00
9:54 AM,33.8,30.2,87,29.78,10.0,WSW,8.1,-,N/A,,Scattered Clouds,250,2013-01-19 15:54:00
10:15 AM,35.6,32.0,87,29.78,10.0,West,10.4,-,N/A,,Overcast,270,2013-01-19 16:15:00
10:35 AM,35.6,32.0,87,29.80,10.0,West,10.4,-,N/A,,Mostly Cloudy,260,2013-01-19 16:35:00
10:54 AM,35.6,32.0,87,29.79,10.0,West,11.5,-,N/A,,Scattered Clouds,260,2013-01-19 16:54:00
11:14 AM,37.4,32.0,81,29.80,10.0,West,15.0,19.6,N/A,,Scattered Clouds,280,2013-01-19 17:14:00
11:35 AM,35.6,30.2,81,29.79,10.0,WNW,18.4,27.6,N/A,,Scattered Clouds,290,2013-01-19 17:35:00
11:55 AM,35.6,30.2,81,29.78,10.0,WNW,16.1,23.0,N/A,,Mostly Cloudy,290,2013-01-19 17:55:00
12:14 PM,35.6,32.0,87,29.78,10.0,WNW,15.0,19.6,N/A,,Mostly Cloudy,290,2013-01-19 18:14:00
12:35 PM,37.4,32.0,81,29.79,10.0,WNW,23.0,28.8,N/A,,Clear,290,2013-01-19 18:35:00
12:55 PM,37.4,32.0,81,29.79,10.0,WNW,23.0,31.1,N/A,,Scattered Clouds,290,2013-01-19 18:55:00
1:14 PM,37.4,32.0,81,29.81,10.0,WNW,28.8,35.7,N/A,,Scattered Clouds,290,2013-01-19 19:14:00
1:35 PM,37.4,32.0,81,29.81,10.0,WNW,25.3,33.4,N/A,,Scattered Clouds,300,2013-01-19 19:35:00
1:55 PM,37.4,30.2,75,29.82,10.0,WNW,26.5,39.1,N/A,,Scattered Clouds,290,2013-01-19 19:55:00
2:15 PM,37.4,30.2,75,29.82,10.0,WNW,25.3,36.8,N/A,,Overcast,290,2013-01-19 20:15:00
2:34 PM,37.4,30.2,75,29.83,10.0,WNW,36.8,44.9,N/A,,Overcast,290,2013-01-19 20:34:00
2:55 PM,35.6,30.2,81,29.84,10.0,WNW,31.1,41.4,N/A,,Overcast,290,2013-01-19 20:55:00
3:15 PM,32.0,26.6,80,29.88,10.0,WNW,24.2,41.4,N/A,,Overcast,290,2013-01-19 21:15:00
3:34 PM,32.0,26.6,80,29.89,10.0,WNW,28.8,38.0,N/A,,Overcast,290,2013-01-19 21:34:00
3:55 PM,26.6,19.4,74,29.92,10.0,WNW,33.4,41.4,N/A,,Scattered Clouds,300,2013-01-19 21:55:00
4:15 PM,24.8,17.6,74,29.95,10.0,WNW,35.7,46.0,N/A,,Scattered Clouds,300,2013-01-19 22:15:00
4:34 PM,21.2,14.0,74,29.98,10.0,WNW,33.4,46.0,N/A,,Scattered Clouds,290,2013-01-19 22:34:00
4:55 PM,21.2,12.2,68,30.00,10.0,WNW,34.5,49.5,N/A,,Mostly Cloudy,300,2013-01-19 22:55:00
5:15 PM,19.4,10.4,68,30.02,10.0,WNW,31.1,43.7,N/A,,Mostly Cloudy,290,2013-01-19 23:15:00
5:35 PM,19.4,12.2,74,30.03,5.0,WNW,31.1,40.3,N/A,Snow,Light Snow,290,2013-01-19 23:35:00
5:55 PM,17.6,10.4,73,30.04,7.0,WNW,36.8,43.7,N/A,Snow,Light Snow,300,2013-01-19 23:55:00
6:14 PM,17.6,10.4,73,30.06,7.0,WNW,32.2,44.9,N/A,,Mostly Cloudy,300,2013-01-20 00:14:00
6:34 PM,14.0,6.8,73,30.07,10.0,WNW,33.4,48.3,N/A,,Overcast,300,2013-01-20 00:34:00
6:55 PM,12.2,5.0,73,30.08,10.0,WNW,38.0,46.0,N/A,,Mostly Cloudy,300,2013-01-20 00:55:00
7:15 PM,12.2,3.2,67,30.10,5.0,WNW,36.8,48.3,N/A,,Haze,300,2013-01-20 01:15:00
7:34 PM,12.2,3.2,67,30.12,-9999.0,WNW,33.4,48.3,N/A,,Scattered Clouds,290,2013-01-20 01:34:00
7:54 PM,10.4,3.2,73,30.13,-9999.0,WNW,32.2,39.1,N/A,,Mostly Cloudy,290,2013-01-20 01:54:00
8:15 PM,8.6,1.4,73,30.15,-9999.0,WNW,34.5,42.6,N/A,,Overcast,300,2013-01-20 02:15:00
8:35 PM,8.6,1.4,73,30.16,-9999.0,WNW,32.2,39.1,N/A,,Overcast,300,2013-01-20 02:35:00
8:54 PM,8.6,-0.4,67,30.18,-9999.0,WNW,29.9,39.1,N/A,,Overcast,290,2013-01-20 02:54:00
9:15 PM,6.8,-0.4,72,30.19,-9999.0,WNW,27.6,38.0,N/A,,Overcast,300,2013-01-20 03:15:00
9:34 PM,5.0,-2.2,72,30.19,-9999.0,NW,26.5,33.4,N/A,,Overcast,310,2013-01-20 03:34:00
9:54 PM,5.0,-4.0,66,30.20,-9999.0,NW,28.8,36.8,N/A,,Overcast,310,2013-01-20 03:54:00
10:14 PM,5.0,-4.0,66,30.22,-9999.0,WNW,31.1,38.0,N/A,,Overcast,300,2013-01-20 04:14:00
10:34 PM,3.2,-4.0,72,30.21,-9999.0,NW,24.2,29.9,N/A,,Overcast,320,2013-01-20 04:34:00
10:54 PM,3.2,-4.0,72,30.23,-9999.0,NW,19.6,27.6,N/A,,Overcast,310,2013-01-20 04:54:00
11:15 PM,3.2,-4.0,72,30.22,-9999.0,NW,17.3,20.7,N/A,,Overcast,310,2013-01-20 05:15:00
11:34 PM,3.2,-4.0,72,30.24,-9999.0,NW,16.1,24.2,N/A,,Overcast,310,2013-01-20 05:34:00